Weather History for Menominee, MI

Change the Weather History Date:

Tuesday, April 9, 2013

  Actual Average Record
Temperature  
Mean Temperature 34 °F -  
Max Temperature 39 °F 50 °F 78 °F (1955)
Min Temperature 30 °F 29 °F 5 °F (1989)
Degree Days  
Heating Degree Days 32    
Moisture  
Dew Point 33 °F    
Average Humidity 91    
Maximum Humidity 100    
Minimum Humidity 75    
Precipitation  
Precipitation 0.21 in - - ()
Sea Level Pressure  
Sea Level Pressure 30.08 in    
Wind  
Wind Speed 7 mph (NE)    
Max Wind Speed 16 mph    
Max Gust Speed 22 mph    
Visibility 7 miles    
Events      
Averages and records for this station are not official NWS values.
T = Trace of Precipitation, MM = Missing Value Source: NWS Daily Summary

Daily Weather History Graph

Daily Weather History Graph

Search for Another Location

Airport:

Trip Planner

Search our weather history database for the weather conditions in past years. The results will help you decide how hot, cold, wet, or windy it might be!

Date:

Astronomy

Apr. 09, 2013 Rise Set
Actual Time 6:15 AM CDT 7:28 PM CDT
Civil Twilight 5:45 AM CDT 7:59 PM CDT
Nautical Twilight 5:09 AM CDT 8:35 PM CDT
Astronomical Twilight 4:30 AM CDT 9:14 PM CDT
Moon 5:39 AM CDT (4/9) 7:04 PM CDT (4/9)
Length of Visible Light 14h 13m
Length of Day
13h 13m
Waning Crescent, 1% of the Moon is Illuminated
Apr 9
Waning Crescent
Apr 10
New
Apr 18
First Quarter
Apr 25
Full
May 2
Last Quarter

Hourly Weather History & Observations

Time (CDT) Temp. Windchill Dew Point Humidity Pressure Visibility Wind Dir Wind Speed Gust Speed Precip Events Conditions
12:15 AM 35.6 °F 30.7 °F 33.8 °F 93% 30.03 in 7.0 mi NNE 5.8 mph - N/A   Overcast
12:35 AM 35.6 °F 30.7 °F 35.6 °F 100% 30.04 in 6.0 mi NNE 5.8 mph - N/A   Overcast
12:55 AM 35.6 °F 32.8 °F 35.6 °F 100% 30.05 in 5.0 mi NNE 3.5 mph - N/A   Overcast
1:15 AM 35.6 °F 32.8 °F 35.6 °F 100% 30.06 in 5.0 mi NNE 3.5 mph - N/A   Overcast
1:35 AM 35.6 °F 32.8 °F 35.6 °F 100% 30.06 in 5.0 mi NE 3.5 mph - N/A   Overcast
1:55 AM 33.8 °F 29.6 °F 33.8 °F 100% 30.07 in 5.0 mi NE 4.6 mph - N/A   Overcast
2:15 AM 35.6 °F 32.8 °F 35.6 °F 100% 30.07 in 5.0 mi NE 3.5 mph - N/A   Overcast
2:35 AM 35.6 °F 32.8 °F 33.8 °F 93% 30.06 in 6.0 mi ENE 3.5 mph - N/A   Overcast
2:55 AM 35.6 °F - 33.8 °F 93% 30.06 in 4.0 mi Calm Calm - N/A   Overcast
3:15 AM 33.8 °F 28.6 °F 33.8 °F 100% 30.06 in 5.0 mi ENE 5.8 mph - N/A   Overcast
3:35 AM 35.6 °F 29.9 °F 33.8 °F 93% 30.05 in 8.0 mi East 6.9 mph - N/A   Overcast
3:55 AM 33.8 °F 27.0 °F 33.8 °F 100% 30.03 in 10.0 mi East 8.1 mph - N/A   Overcast
4:15 AM 33.8 °F 27.7 °F 32.0 °F 93% 30.04 in 7.0 mi ENE 6.9 mph - N/A   Overcast
4:35 AM 35.6 °F 32.8 °F 33.8 °F 93% 30.06 in 8.0 mi East 3.5 mph - N/A   Overcast
4:55 AM 33.8 °F 29.6 °F 33.8 °F 100% 30.06 in 8.0 mi East 4.6 mph - N/A   Overcast
5:15 AM 35.6 °F 32.8 °F 33.8 °F 93% 30.08 in 10.0 mi East 3.5 mph - N/A   Overcast
5:35 AM 35.6 °F 31.7 °F 33.8 °F 93% 30.08 in 10.0 mi East 4.6 mph - N/A   Overcast
5:55 AM 33.8 °F 28.6 °F 32.0 °F 93% 30.07 in 10.0 mi East 5.8 mph - N/A   Overcast
6:15 AM 35.6 °F - 33.8 °F 93% 30.08 in 9.0 mi Calm Calm - N/A   Overcast
6:35 AM 35.6 °F 31.7 °F 33.8 °F 93% 30.09 in 8.0 mi NE 4.6 mph - N/A   Overcast
6:55 AM 33.8 °F 29.6 °F 33.8 °F 100% 30.09 in 6.0 mi ENE 4.6 mph - N/A   Overcast
7:15 AM 33.8 °F 30.8 °F 32.0 °F 93% 30.10 in 5.0 mi NE 3.5 mph - N/A   Overcast
7:35 AM 35.6 °F 30.7 °F 33.8 °F 93% 30.08 in 5.0 mi NE 5.8 mph - N/A   Overcast
7:55 AM 33.8 °F 27.7 °F 33.8 °F 100% 30.07 in 5.0 mi NNE 6.9 mph - N/A   Overcast
8:15 AM 35.6 °F 29.9 °F 33.8 °F 93% 30.07 in 3.0 mi NE 6.9 mph - N/A   Overcast
8:35 AM 35.6 °F 29.9 °F 35.6 °F 100% 30.08 in 3.0 mi NE 6.9 mph - N/A   Overcast
8:55 AM 35.6 °F 29.9 °F 33.8 °F 93% 30.08 in 3.0 mi NE 6.9 mph - N/A   Overcast
9:15 AM 35.6 °F 29.9 °F 35.6 °F 100% 30.08 in 3.0 mi NNE 6.9 mph - N/A   Overcast
9:35 AM 37.4 °F 32.1 °F 33.8 °F 87% 30.07 in 3.0 mi NNE 6.9 mph - N/A   Overcast
9:55 AM 35.6 °F 30.7 °F 35.6 °F 100% 30.06 in 5.0 mi NNE 5.8 mph - N/A   Overcast
10:15 AM 37.4 °F 31.4 °F 35.6 °F 93% 30.06 in 4.0 mi NNE 8.1 mph - N/A   Overcast
10:35 AM 35.6 °F 29.9 °F 33.8 °F 93% 30.06 in 4.0 mi NNE 6.9 mph - N/A   Overcast
10:55 AM 35.6 °F 30.7 °F 35.6 °F 100% 30.07 in 6.0 mi NE 5.8 mph - N/A   Overcast
11:15 AM 37.4 °F 32.1 °F 35.6 °F 93% 30.07 in 5.0 mi NNE 6.9 mph - N/A   Overcast
11:35 AM 37.4 °F 31.4 °F 35.6 °F 93% 30.07 in 7.0 mi NNE 8.1 mph - N/A   Overcast
11:55 AM 35.6 °F 29.2 °F 35.6 °F 100% 30.06 in 7.0 mi ENE 8.1 mph - N/A   Overcast
12:15 PM 35.6 °F 30.7 °F 35.6 °F 100% 30.07 in 5.0 mi East 5.8 mph - 0.01 in   Overcast
12:55 PM 35.6 °F 28.6 °F 35.6 °F 100% 30.06 in 4.0 mi ENE 9.2 mph - 0.01 in   Overcast
1:15 PM 37.4 °F 29.8 °F 35.6 °F 93% 30.05 in 3.0 mi ENE 11.5 mph - N/A   Overcast
1:35 PM 35.6 °F 27.5 °F 33.8 °F 93% 30.06 in 3.0 mi ENE 11.5 mph - 0.01 in   Overcast
1:55 PM 35.6 °F 29.9 °F 35.6 °F 100% 30.07 in 3.0 mi ENE 6.9 mph - 0.03 in   Overcast
2:15 PM 37.4 °F 30.8 °F 35.6 °F 93% 30.08 in 4.0 mi ENE 9.2 mph - 0.04 in   Overcast
2:35 PM 37.4 °F 31.4 °F 35.6 °F 93% 30.08 in 4.0 mi ENE 8.1 mph - 0.07 in   Overcast
2:55 PM 37.4 °F 31.4 °F 35.6 °F 93% 30.08 in 3.0 mi ENE 8.1 mph - 0.11 in   Overcast
3:15 PM 37.4 °F 31.4 °F 37.4 °F 100% 30.08 in 5.0 mi NE 8.1 mph - 0.03 in   Overcast
3:35 PM 37.4 °F 28.2 °F 35.6 °F 93% 30.09 in 9.0 mi NNE 16.1 mph 19.6 mph 0.04 in   Overcast
3:55 PM 37.4 °F 30.3 °F 35.6 °F 93% 30.09 in 10.0 mi NE 10.4 mph - 0.04 in   Overcast
4:15 PM 37.4 °F 28.9 °F 35.6 °F 93% 30.09 in 10.0 mi NE 13.8 mph 20.7 mph 0.01 in   Overcast
4:35 PM 37.4 °F 28.9 °F 35.6 °F 93% 30.08 in 10.0 mi NE 13.8 mph - 0.01 in   Overcast
4:55 PM 37.4 °F 28.2 °F 35.6 °F 93% 30.08 in 10.0 mi NE 16.1 mph - 0.02 in   Overcast
5:15 PM 37.4 °F 28.9 °F 35.6 °F 93% 30.08 in 10.0 mi NNE 13.8 mph 20.7 mph N/A   Overcast
5:35 PM 37.4 °F 28.5 °F 33.8 °F 87% 30.08 in 10.0 mi NNE 15.0 mph 20.7 mph N/A   Mostly Cloudy
5:55 PM 37.4 °F 29.8 °F 33.8 °F 87% 30.08 in 10.0 mi NE 11.5 mph - N/A   Overcast
6:15 PM 37.4 °F 28.9 °F 30.2 °F 75% 30.10 in 10.0 mi NNE 13.8 mph 20.7 mph N/A   Overcast
6:35 PM 35.6 °F 26.2 °F 30.2 °F 81% 30.10 in 10.0 mi NNE 15.0 mph 19.6 mph N/A   Overcast
6:55 PM 35.6 °F 27.1 °F 28.4 °F 75% 30.11 in 10.0 mi NNE 12.7 mph - N/A   Overcast
7:15 PM 35.6 °F 27.1 °F 28.4 °F 75% 30.12 in 10.0 mi NNE 12.7 mph - N/A   Overcast
7:35 PM 33.8 °F 25.3 °F 26.6 °F 75% 30.12 in 10.0 mi NNE 11.5 mph 17.3 mph N/A   Mostly Cloudy
7:55 PM 33.8 °F 27.0 °F 28.4 °F 81% 30.13 in 10.0 mi NNE 8.1 mph - N/A   Mostly Cloudy
8:15 PM 33.8 °F 24.3 °F 28.4 °F 81% 30.14 in 10.0 mi NNE 13.8 mph 18.4 mph N/A   Overcast
8:35 PM 33.8 °F 27.7 °F 26.6 °F 75% 30.15 in 10.0 mi North 6.9 mph - N/A   Overcast
8:55 PM 33.8 °F 26.4 °F 26.6 °F 75% 30.15 in 10.0 mi NNE 9.2 mph 18.4 mph N/A   Mostly Cloudy
9:15 PM 32.0 °F 21.6 °F 24.8 °F 75% 30.15 in 10.0 mi NNE 15.0 mph 19.6 mph N/A   Clear
9:55 PM 30.2 °F 19.8 °F 23.0 °F 75% 30.14 in 10.0 mi NNE 13.8 mph 21.9 mph N/A   Clear
10:15 PM 30.2 °F 20.2 °F 24.8 °F 80% 30.15 in 10.0 mi NNE 12.7 mph 19.6 mph N/A   Clear
10:35 PM 30.2 °F 19.8 °F 24.8 °F 80% 30.15 in 10.0 mi NE 13.8 mph - N/A   Clear
10:55 PM 30.2 °F 21.3 °F 24.8 °F 80% 30.14 in 10.0 mi NE 10.4 mph - N/A   Clear
11:15 PM 30.2 °F 20.8 °F 23.0 °F 75% 30.14 in 10.0 mi NE 11.5 mph - N/A   Partly Cloudy
11:35 PM 30.2 °F 21.3 °F 24.8 °F 80% 30.13 in 10.0 mi NE 10.4 mph - N/A   Scattered Clouds
11:55 PM 30.2 °F 20.8 °F 24.8 °F 80% 30.11 in 10.0 mi NE 11.5 mph - N/A   Scattered Clouds